All Spectrum Aviation - Van Nuys Airport - KVNY

HOME

Condor Squadron KVNY Webcam

Visit our Electronics Store

Condor Squadron Webcam - Van Nuys Airport - KVNY
Picture taken: Sun, 10 May 2020 10:59:00 -0700
YouTube Channel!    Latest Timelapse Movie    Full Size Image    Regular Size Image    

2020/05/26 18:51 KVNY 261851Z AUTO VRB03KT 10SM CLR 31/12 A2990 RMK AO2 SLP114 T03110122

HOME

Condor Squadron KVNY Webcam

Visit our Electronics Store